Regional Weather Roundup
Issued by NWS

Home | Current Version | Previous Version | Graphics & Text | Print | Product List | Glossary On
Versions: 1 2 3 4 5 6 7 8 9 10 11 12 13 14 15 16 17 18 19 20 21 22 23 24 25 26 27 28 29 30 31 32 33 34 35 36 37 38 39 40 41 42 43 44 45 46 47 48 49 50
000
ASUS43 KMPX 010110
RWRMN
WEATHER ROUNDUP FOR MINNESOTA
NATIONAL WEATHER SERVICE TWIN CITIES/CHANHASSEN MN
700 PM CST SAT FEB 28 2015


NOTE: "FAIR" INDICATES FEW OR NO CLOUDS BELOW 12,000 FEET WITH NO
SIGNIFICANT WEATHER AND/OR OBSTRUCTIONS TO VISIBILITY. N/A MEANS
CURRENT SKY AND/OR WEATHER CONDITIONS ARE NOT AVAILABLE.

MNZ060>063-068>070-010200-
   Twin Cities Metro

CITY           SKY/WX    TMP DP  RH WIND       PRES   REMARKS
TWIN CITIES    MOCLDY    14   2  58 S13       30.37S WCI   0
ST PAUL        PTCLDY    13   3  64 S12       30.40R WCI  -1
CRYSTAL        MOCLDY    16   3  56 S12       30.34F WCI   3
BLAINE         PTCLDY    16   7  67 S12       30.35S WCI   3
LAKEVILLE      CLEAR      9   1  72 S7        30.36F WCI  -3
EDEN PRAIRIE   CLOUDY    14   3  61 S13       30.35F WCI   0
SOUTH ST PAUL  PTCLDY    14   4  64 S7        30.38S WCI   4
LAKE ELMO      FAIR      14   5  67 S13       30.38R WCI   0
$$
MNZ001>005-007-008-013>017-022>024-027-028-010200-
   Northwest Minnesota

CITY           SKY/WX    TMP DP  RH WIND       PRES   REMARKS
BEMIDJI        MOCLDY    19  11  72 S10       30.13S WCI   7
HALLOCK        CLOUDY    18  14  86 W8        30.09R WCI   7
ROSEAU         LGT SNOW  21  16  79 SW15      30.06S WCI   8
WARROAD        LGT SNOW  21  18  86 S8        30.07S WCI  12
THIEF RVR FALL CLOUDY    19  18  93 SW12      30.09S WCI   7
CROOKSTON      CLOUDY    19  18  93 W9        30.14R WCI   9
FOSSTON        LGT SNOW  18  14  86 S21G26    30.11S WCI   1
DETROIT LAKES  MIX PCPN  21  18  86 S13       30.14S WCI   9
MOORHEAD       LGT SNOW  23  23 100 S9        30.16S WCI  13
PARK RAPIDS    LGT SNOW  18  13  80 S14       30.15S WCI   4
MAHNOMEN       LGT SNOW  19  16  86 S18       30.13S WCI   4
$$
MNZ006-009>011-018-025>026-010200-
   North Central Minnesota

CITY           SKY/WX    TMP DP  RH WIND       PRES   REMARKS
BAUDETTE       LGT SNOW  20  15  81 S13       30.08R WCI   7
FLAG ISLAND    LGT SNOW  19  18  93 S8        30.05S WCI   9
INTL FALLS     MOCLDY    20   1  43 S5        30.12S WCI  13
WASKISH        CLOUDY    21  12  68 S7G18     30.12S WCI  13
BIG FORK       MOCLDY    19   7  58 S14G24    30.15S WCI   6
LONGVILLE      CLOUDY    18  10  73 S10G17    30.19R WCI   6
GRAND RAPIDS   CLOUDY    18   5  57 S14G23    30.18S WCI   4
CRANE LAKE     CLOUDY    19  -2  38 S5        30.18S WCI  13
ORR            CLOUDY    18   0  45 S6        30.13F WCI   9
COOK           CLOUDY    18   0  45 S9        30.17F WCI   6
WALKER         FLURRIES  17  11  77 S7        30.15S WCI   8
$$
MNZ012-019>021-037-010200-
   Northeast Minnesota

CITY           SKY/WX    TMP DP  RH WIND       PRES   REMARKS
DULUTH         MOCLDY    17   1  49 S16       30.23R WCI   2
ELY            PTCLDY    18   0  45 S8G16     30.18S WCI   7
HIBBING        CLOUDY    18   0  45 S6        30.19S WCI  10
EVELETH        PTCLDY    18   1  49 S13G18    30.20S WCI   4
DULUTH HARBOR  PTCLDY    19   5  53 S15       30.31S WCI   5
SILVER BAY     PTCLDY    19   3  49 S9        30.23S WCI   9
GRAND MARAIS     N/A     23   7  50 SW23G29   30.28F WCI   7
G MARAIS ARPRT PTCLDY    12   1  62 S6        30.19S WCI   3
$$
MNZ029>031-032-039>041-046>048-054>057-064-010200-
   West Central Minnesota

CITY           SKY/WX    TMP DP  RH WIND       PRES   REMARKS
FERGUS FALLS   LGT SNOW  19  14  79 S15       30.21S WCI   5
MORRIS         CLOUDY    19  14  79 S13       30.20S WCI   7
ALEXANDRIA     CLOUDY    18  12  77 S12       30.20S WCI   5
ELBOW LAKE     CLOUDY    18  13  80 S15       30.18F WCI   4
WADENA         FLURRIES  18  12  79 S12       30.18S WCI   5
APPLETON       CLOUDY    19  14  79 SE9       30.22S WCI   9
BENSON         CLOUDY    19  12  73 S8        30.23S WCI   9
ORTONVILLE     CLOUDY    19  14  79 SE8       30.19S WCI   9
MADISON        PTCLDY    18  12  79 S9        30.22S WCI   6
WILLMAR        CLOUDY    19  12  73 S5        30.27S WCI  13
$$
MNZ033>034-036-042>043-049>051-058-059-010200-
   Central Minnesota

CITY           SKY/WX    TMP DP  RH WIND       PRES   REMARKS
ST CLOUD       CLOUDY    16   6  65 S15G24    30.29R WCI   1
SAUK CENTRE    CLOUDY    17  12  80 S10       30.23F WCI   5
PAYNESVILLE    LGT SNOW  16  10  79 SE10      30.26S WCI   3
PINE RIVER     LGT SNOW  18  12  79 S10       30.23S WCI   6
BRAINERD       CLOUDY    17   8  67 S13       30.23S WCI   4
STAPLES        LGT SNOW  16  12  86 S10       30.20F WCI   3
LONG PRAIRIE   LGT SNOW  18  12  79 SE13      30.22F WCI   4
LITTLE FALLS   PTCLDY    18  10  73 S9G22     30.26S WCI   6
LITCHFIELD     CLOUDY    18  12  79 SE7       30.29S WCI   8
BUFFALO        CLOUDY    16   7  67 S8        30.33S WCI   5
MAPLE LAKE     CLOUDY    17   9  71 SE7       30.32S WCI   8
$$
MNZ037-044-045-052-053-010200-
   East Central Minnesota

CITY           SKY/WX    TMP DP  RH WIND       PRES   REMARKS
PRINCETON      CLOUDY    18   7  62 S12       30.31R WCI   5
MORA           MOCLDY    18   5  57 SW12      30.31S WCI   5
CAMBRIDGE      CLOUDY    18   5  57 S9        30.31S WCI   6
RUSH CITY      CLOUDY    15   4  60 S15       30.33S WCI   0
MOOSE LAKE     CLOUDY    18   3  53 S9        30.26R WCI   6
HINCKLEY       MOCLDY    18   5  57 S14G21    30.31R WCI   4
CLOQUET        CLOUDY    18   1  49 S9G17     30.24S WCI   6
MCGREGOR       CLOUDY    19   7  58 S8G18     30.25R WCI   9
$$
MNZ071>073-080-081-089-090-097-098-010200-
   Southwest Minnesota

CITY           SKY/WX    TMP DP  RH WIND       PRES   REMARKS
MONTEVIDEO     PTCLDY    18  14  86 S8        30.25S WCI   7
GRANITE FALLS  CLEAR     18  13  81 SE13      30.27S WCI   4
CANBY          CLEAR     19  13  80 SE8       30.22S WCI   8
MARSHALL       CLEAR     19  10  68 S12       30.25S WCI   7
REDWOOD FALLS  MOCLDY    18  11  74 S12       30.28S WCI   5
OLIVIA         MOCLDY    19  12  73 S9        30.27S WCI   9
PIPESTONE      CLEAR     19  14  79 S14       30.19S WCI   6
WINDOM         PTCLDY    18  12  79 S5        30.27S WCI  11
WORTHINGTON    CLOUDY    28   9  43 S16       30.27S WCI  17
JACKSON        MOCLDY    19  12  73 S10       30.28S WCI   8
TRACY          CLEAR     19  14  79 S14       30.24S WCI   6
SLAYTON        MOCLDY    17  12  79 CALM      30.23S
$$
MNZ065>067-074>077-082>085-091>093-010200-
   South Central Minnesota

CITY           SKY/WX    TMP DP  RH WIND       PRES   REMARKS
MANKATO        CLOUDY    14   3  62 S13       30.34S WCI   0
NEW ULM        CLOUDY    18  10  73 S10       30.31F WCI   6
ST JAMES       FLURRIES  19  14  79 SE13      30.33S WCI   7
FAIRMONT       CLOUDY    18  10  73 S14       30.30F WCI   4
GLENCOE        CLOUDY    18  11  76 S8        30.32S WCI   7
FARIBAULT      CLEAR     10   1  67 S7        30.36S WCI   0
OWATONNA       CLEAR     10   1  67 SE12      30.36R WCI  -4
WASECA         PTCLDY    12   5  73 SE7       30.37S WCI   2
ALBERT LEA     PTCLDY    10   3  72 S10       30.35S WCI  -3
$$
MNZ078>079-086>088-094>096-010200-
   Southeast Minnesota

CITY           SKY/WX    TMP DP  RH WIND       PRES   REMARKS
ROCHESTER      CLOUDY    11   2  67 S12       30.37S WCI  -3
RED WING       CLOUDY    16   0  48 S8        30.39F WCI   5
STANTON        PTCLDY    13   3  65 S6        30.37S WCI   4
DODGE CENTER   PTCLDY     7   1  78 S9        30.35S WCI  -7
WINONA         CLOUDY    18   1  49 S5        30.44F WCI  11
AUSTIN         CLOUDY    10   3  72 S9        30.37S WCI  -2
PRESTON        CLOUDY    11   2  66 S8        30.39S WCI   0
$$
ABBREVIATIONS USED IN REMARKS
   TC - TEMPERATURES IN CELSIUS
  WCI - WIND CHILL INDEX
   HX - HEAT INDEX
  VSB - VISIBILITY
$$


USA.gov is the U.S. government's official web portal to all federal, state and local government web resources and services.